User: anonymous   Login
Location: Chuathbaluk
(61.5726°N, 159.2454°W)
Time: 23:24:19
(UTC+00:00)
Language:

NOAA 19 - Orbit

View from above orbital plane
View from above orbital plane
View from above satellite
View from above satellite

Ground track
Ground track

The orbit data is extracted from the following two-line orbital elements,

1 33591U 09005A   21023.75902729  .00000048  00000-0  51452-4 0  9997
2 33591  99.1928  40.8085 0014047 174.6367 185.4956 14.12449588616496
Epoch (UTC): 23 January 2021 18:12:59
Eccentricity: 0.0014047
inclination: 99.1928°
perigee height: 841 km
apogee height: 861 km
right ascension of ascending node: 40.8085°
argument of perigee: 174.6367°
revolutions per day: 14.12449588
mean anomaly at epoch: 185.4956°
orbit number at epoch: 61649

The dashed part of the orbit path shows where the satellite is in the earth's shadow,  

DLR